Time,TemperatureF,DewpointF,PressureIn,WindDirection,WindDirectionDegrees,WindSpeedMPH,WindSpeedGustMPH,Humidity,HourlyPrecipIn,Conditions,Clouds,dailyrainin,SoftwareType,DateUTC
2013-12-05 00:12:00,49.0,28.0,29.80,West,271,0.0,0.0,44,0.00,,,0.00,,2013-12-05 07:12:00,
2013-12-05 00:22:00,50.0,29.0,29.80,West,277,0.0,0.0,44,0.00,,,0.00,,2013-12-05 07:22:00,
2013-12-05 00:42:00,49.0,29.0,29.78,West,268,0.0,0.0,45,0.00,,,0.00,,2013-12-05 07:42:00,
2013-12-05 00:52:00,49.0,28.0,29.78,West,279,0.0,0.0,44,0.00,,,0.00,,2013-12-05 07:52:00,
2013-12-05 01:11:00,49.0,28.0,29.78,WNW,290,0.0,0.0,44,0.00,,,0.00,,2013-12-05 08:11:00,
2013-12-05 01:22:00,48.0,28.0,29.77,WNW,294,0.0,0.0,45,0.00,,,0.00,,2013-12-05 08:22:00,
2013-12-05 01:42:00,48.0,28.0,29.77,WNW,286,0.0,0.0,45,0.00,,,0.00,,2013-12-05 08:42:00,
2013-12-05 01:53:00,48.0,28.0,29.77,West,271,0.0,0.0,46,0.00,,,0.00,,2013-12-05 08:53:00,
2013-12-05 02:22:00,48.0,29.0,29.78,WSW,246,0.0,0.0,48,0.00,,,0.00,,2013-12-05 09:22:00,
2013-12-05 02:43:00,47.0,29.0,29.78,WSW,245,0.0,0.0,49,0.00,,,0.00,,2013-12-05 09:43:00,
2013-12-05 02:53:00,47.0,29.0,29.77,West,260,0.0,0.0,49,0.00,,,0.00,,2013-12-05 09:53:00,
2013-12-05 03:13:00,47.0,29.0,29.78,WSW,250,0.0,0.0,50,0.00,,,0.00,,2013-12-05 10:13:00,
2013-12-05 03:23:00,47.0,29.0,29.78,WSW,250,0.0,0.0,50,0.00,,,0.00,,2013-12-05 10:23:00,
2013-12-05 03:43:00,47.0,30.0,29.78,WSW,250,0.0,0.0,51,0.00,,,0.00,,2013-12-05 10:43:00,
2013-12-05 03:53:00,47.0,29.0,29.78,WSW,250,0.0,0.0,50,0.00,,,0.00,,2013-12-05 10:53:00,
2013-12-05 04:12:00,47.0,30.0,29.78,WSW,241,0.0,0.0,51,0.00,,,0.00,,2013-12-05 11:12:00,
2013-12-05 04:22:00,47.0,30.0,29.78,West,263,0.0,0.0,52,0.00,,,0.00,,2013-12-05 11:22:00,
2013-12-05 04:42:00,47.0,30.0,29.79,West,264,0.0,0.0,52,0.00,,,0.00,,2013-12-05 11:42:00,
2013-12-05 04:53:00,46.0,30.0,29.79,SW,231,0.0,0.0,53,0.00,,,0.00,,2013-12-05 11:53:00,
2013-12-05 05:12:00,45.0,30.0,29.78,SSW,213,0.0,0.0,56,0.00,,,0.00,,2013-12-05 12:12:00,
2013-12-05 05:22:00,45.0,30.0,29.78,SW,229,0.0,0.0,56,0.00,,,0.00,,2013-12-05 12:22:00,
2013-12-05 05:42:00,45.0,31.0,29.78,SW,227,0.0,0.0,57,0.00,,,0.00,,2013-12-05 12:42:00,
2013-12-05 05:52:00,46.0,33.0,29.78,SW,221,0.0,0.0,60,0.00,,,0.00,,2013-12-05 12:52:00,
2013-12-05 06:11:00,46.0,34.0,29.78,SW,219,0.0,0.0,62,0.00,,,0.00,,2013-12-05 13:11:00,
2013-12-05 06:22:00,45.0,34.0,29.79,SW,219,0.0,0.0,65,0.00,,,0.00,,2013-12-05 13:22:00,
2013-12-05 06:42:00,46.0,35.0,29.79,SW,236,0.0,0.0,65,0.00,,,0.00,,2013-12-05 13:42:00,
2013-12-05 06:52:00,45.0,35.0,29.80,SSW,210,0.0,0.0,67,0.00,,,0.00,,2013-12-05 13:52:00,
2013-12-05 07:12:00,45.0,34.0,29.79,SSW,202,0.0,0.0,66,0.00,,,0.00,,2013-12-05 14:12:00,
2013-12-05 07:22:00,45.0,34.0,29.79,SSW,209,0.0,0.0,64,0.00,,,0.00,,2013-12-05 14:22:00,
2013-12-05 07:42:00,45.0,32.0,29.79,SW,216,0.0,0.0,61,0.00,,,0.00,,2013-12-05 14:42:00,
2013-12-05 07:52:00,45.0,33.0,29.79,SSW,205,0.0,0.0,62,0.00,,,0.00,,2013-12-05 14:52:00,
2013-12-05 08:11:00,45.0,34.0,29.79,SSW,211,0.0,0.0,64,0.00,,,0.00,,2013-12-05 15:11:00,
2013-12-05 08:22:00,46.0,34.0,29.79,SW,225,0.0,0.0,62,0.00,,,0.00,,2013-12-05 15:22:00,
2013-12-05 08:43:00,46.0,35.0,29.80,SSW,209,0.0,0.0,66,0.00,,,0.00,,2013-12-05 15:43:00,
2013-12-05 08:54:00,45.0,36.0,29.81,SW,215,0.0,0.0,70,0.00,,,0.00,,2013-12-05 15:54:00,
2013-12-05 09:13:00,45.0,36.0,29.81,SSW,207,0.0,0.0,71,0.00,,,0.00,,2013-12-05 16:13:00,
2013-12-05 09:23:00,44.0,36.0,29.81,SW,215,0.0,0.0,74,0.00,,,0.00,,2013-12-05 16:23:00,
2013-12-05 09:43:00,44.0,37.0,29.82,SSW,212,0.0,0.0,77,0.00,,,0.00,,2013-12-05 16:43:00,
2013-12-05 09:53:00,44.0,38.0,29.82,SSW,207,0.0,0.0,78,0.00,,,0.00,,2013-12-05 16:53:00,
2013-12-05 10:12:00,44.0,38.0,29.81,SSW,213,0.0,0.0,80,0.00,,,0.00,,2013-12-05 17:12:00,
2013-12-05 10:23:00,44.0,38.0,29.81,SW,225,0.0,0.0,80,0.00,,,0.00,,2013-12-05 17:23:00,
2013-12-05 10:42:00,45.0,39.0,29.82,SW,225,0.0,0.0,79,0.00,,,0.00,,2013-12-05 17:42:00,
2013-12-05 10:52:00,47.0,39.0,29.81,SSW,207,0.0,0.0,74,0.00,,,0.00,,2013-12-05 17:52:00,
2013-12-05 11:13:00,47.0,38.0,29.81,WSW,238,0.0,0.0,71,0.00,,,0.00,,2013-12-05 18:13:00,
2013-12-05 11:22:00,50.0,34.0,29.80,West,271,0.0,0.0,55,0.00,,,0.00,,2013-12-05 18:22:00,
2013-12-05 11:42:00,51.0,34.0,29.80,WNW,290,0.0,0.0,51,0.00,,,0.00,,2013-12-05 18:42:00,
2013-12-05 11:52:00,50.0,34.0,29.79,WSW,257,0.0,0.0,53,0.00,,,0.00,,2013-12-05 18:52:00,
2013-12-05 12:12:00,51.0,34.0,29.79,WSW,250,0.0,0.0,52,0.00,,,0.00,,2013-12-05 19:12:00,
2013-12-05 12:21:00,51.0,34.0,29.78,West,274,0.0,0.0,52,0.00,,,0.00,,2013-12-05 19:21:00,
2013-12-05 12:42:00,52.0,34.0,29.77,West,259,0.0,0.0,51,0.00,,,0.00,,2013-12-05 19:42:00,
2013-12-05 12:52:00,51.0,33.0,29.77,WNW,301,0.0,0.0,49,0.00,,,0.00,,2013-12-05 19:52:00,
2013-12-05 13:11:00,51.0,32.0,29.76,WNW,289,0.0,0.0,48,0.00,,,0.00,,2013-12-05 20:11:00,
2013-12-05 13:22:00,51.0,33.0,29.76,WNW,285,0.0,0.0,49,0.00,,,0.00,,2013-12-05 20:22:00,
2013-12-05 13:42:00,51.0,33.0,29.75,WSW,254,0.0,0.0,49,0.00,,,0.00,,2013-12-05 20:42:00,
2013-12-05 13:52:00,52.0,33.0,29.75,West,275,0.0,0.0,48,0.00,,,0.00,,2013-12-05 20:52:00,
2013-12-05 14:12:00,51.0,33.0,29.75,WNW,292,0.0,0.0,50,0.00,,,0.00,,2013-12-05 21:12:00,
2013-12-05 14:22:00,51.0,34.0,29.75,West,281,0.0,0.0,51,0.00,,,0.00,,2013-12-05 21:22:00,
2013-12-05 14:44:00,51.0,34.0,29.75,West,269,0.0,0.0,53,0.00,,,0.00,,2013-12-05 21:44:00,
2013-12-05 14:53:00,50.0,35.0,29.76,WNW,296,0.0,0.0,56,0.00,,,0.00,,2013-12-05 21:53:00,
2013-12-05 15:13:00,49.0,34.0,29.76,WNW,294,0.0,0.0,57,0.00,,,0.00,,2013-12-05 22:13:00,
2013-12-05 15:23:00,49.0,35.0,29.76,NW,315,0.0,0.0,59,0.00,,,0.00,,2013-12-05 22:23:00,
2013-12-05 15:42:00,48.0,35.0,29.77,NW,310,0.0,0.0,60,0.00,,,0.00,,2013-12-05 22:42:00,
2013-12-05 15:52:00,48.0,35.0,29.78,NW,321,0.0,0.0,61,0.00,,,0.00,,2013-12-05 22:52:00,
2013-12-05 16:12:00,47.0,35.0,29.78,NW,323,0.0,0.0,64,0.00,,,0.00,,2013-12-05 23:12:00,
2013-12-05 16:22:00,46.0,35.0,29.79,NNW,328,0.0,0.0,64,0.00,,,0.00,,2013-12-05 23:22:00,
2013-12-05 16:43:00,46.0,34.0,29.80,NW,315,0.0,0.0,62,0.00,,,0.00,,2013-12-05 23:43:00,
2013-12-05 16:53:00,46.0,33.0,29.80,NW,311,0.0,0.0,61,0.00,,,0.00,,2013-12-05 23:53:00,
2013-12-05 17:11:00,46.0,33.0,29.82,NW,313,0.0,0.0,60,0.00,,,0.00,,2013-12-06 00:11:00,
2013-12-05 17:22:00,45.0,32.0,29.83,NNW,327,0.0,0.0,61,0.00,,,0.00,,2013-12-06 00:22:00,
2013-12-05 17:42:00,44.0,33.0,29.84,NNW,327,0.0,0.0,66,0.00,,,0.00,,2013-12-06 00:42:00,
2013-12-05 17:52:00,42.0,35.0,29.83,NNW,334,0.0,0.0,75,0.00,,,0.00,,2013-12-06 00:52:00,
2013-12-05 18:11:00,42.0,34.0,29.84,WNW,298,0.0,0.0,74,0.00,,,0.00,,2013-12-06 01:11:00,
2013-12-05 18:21:00,42.0,34.0,29.85,NW,308,0.0,0.0,74,0.00,,,0.00,,2013-12-06 01:21:00,
2013-12-05 18:42:00,42.0,34.0,29.85,WNW,301,0.0,0.0,73,0.00,,,0.00,,2013-12-06 01:42:00,
2013-12-05 18:52:00,43.0,35.0,29.86,WNW,287,0.0,0.0,72,0.00,,,0.00,,2013-12-06 01:52:00,
2013-12-05 19:11:00,42.0,31.0,29.86,WNW,294,0.0,0.0,66,0.00,,,0.00,,2013-12-06 02:11:00,
2013-12-05 19:22:00,42.0,31.0,29.87,NW,312,0.0,0.0,64,0.00,,,0.00,,2013-12-06 02:22:00,
2013-12-05 19:42:00,42.0,31.0,29.87,NW,319,0.0,0.0,65,0.00,,,0.00,,2013-12-06 02:42:00,
2013-12-05 19:52:00,41.0,30.0,29.87,NW,312,0.0,0.0,65,0.00,,,0.00,,2013-12-06 02:52:00,
2013-12-05 20:12:00,41.0,30.0,29.88,WNW,302,0.0,0.0,64,0.00,,,0.00,,2013-12-06 03:12:00,
2013-12-05 20:21:00,41.0,30.0,29.89,WNW,300,0.0,0.0,65,0.00,,,0.00,,2013-12-06 03:21:00,
2013-12-05 20:43:00,41.0,30.0,29.90,WNW,293,0.0,0.0,65,0.00,,,0.00,,2013-12-06 03:43:00,
2013-12-05 20:53:00,40.0,29.0,29.90,WNW,296,0.0,0.0,64,0.00,,,0.00,,2013-12-06 03:53:00,
2013-12-05 21:23:00,41.0,30.0,29.91,West,269,0.0,0.0,64,0.00,,,0.00,,2013-12-06 04:23:00,
2013-12-05 21:43:00,40.0,29.0,29.92,WSW,240,0.0,0.0,65,0.00,,,0.00,,2013-12-06 04:43:00,
2013-12-05 21:53:00,40.0,29.0,29.92,SW,236,0.0,0.0,65,0.00,,,0.00,,2013-12-06 04:53:00,
2013-12-05 22:13:00,40.0,30.0,29.92,SW,225,0.0,0.0,66,0.00,,,0.00,,2013-12-06 05:13:00,
2013-12-05 22:22:00,40.0,30.0,29.93,WSW,250,0.0,0.0,66,0.00,,,0.00,,2013-12-06 05:22:00,
2013-12-05 22:43:00,39.0,29.0,29.94,West,267,0.0,0.0,66,0.00,,,0.00,,2013-12-06 05:43:00,
2013-12-05 22:53:00,39.0,29.0,29.95,WSW,258,0.0,0.0,68,0.00,,,0.00,,2013-12-06 05:53:00,
2013-12-05 23:12:00,38.0,28.0,29.96,West,267,0.0,0.0,68,0.00,,,0.00,,2013-12-06 06:12:00,
2013-12-05 23:22:00,38.0,29.0,29.97,West,275,0.0,0.0,69,0.00,,,0.00,,2013-12-06 06:22:00,
2013-12-05 23:42:00,38.0,29.0,29.97,WNW,285,0.0,0.0,69,0.00,,,0.00,,2013-12-06 06:42:00,
2013-12-05 23:52:00,37.0,28.0,29.97,WNW,284,0.0,0.0,71,0.00,,,0.00,,2013-12-06 06:52:00,